AQI (34)

Current Conditions for Foresthill, CA. Overcast, Showers in the area   
Visibility: 10 miles
Breezy            
Cloud ht: 2,700 ft
Space WX Alerts: CONTINUED ALERT:  Electron 2MeV Integral Flux exceeded 1000pfu ( Latest Alert ) - Issue Time: 2018 Dec 16 1416 UTC

  Summary / Temperature 

Current Temperature
44.3°F
6.8°C
(24/hr Ago)
41.8°F
(Apparent temp)
37.6°F
Cool
Wind Chill Graphs
39.4°F 
Wind Chill-Avg
40.1°F 4.5°C
 --- Virtual Temp: 46.3°F ---

 Temp Rate:

 24/hr Difference:

 Avg Running Temp:

 Todays High:

 Todays Low:

 Y-days High:

 Y-days Low:

 Todays WChill:

 Y-days WChill:

 Evapotranspiration:

+0.4°F/hr 

+2.5°F

44.1°F

44.3°F 12:10am

44.2°F 12:00am

52.6°F 12:58pm

41.4°F 3:54am

35.3°F 12:24am

32.5°F 9:41pm

0.000 in

115' Above Ground

 Temperature:

 6'AGL VRS 115'AGL:

 Avg Running Temp:

 Humidity:

 Todays High:

 Todays Low:

 Y-days High:

 Y-days Low:

53.0°F 

+8.7°F

53.0°F

0% 

53.0°F 12:00am

53.0°F 12:00am

54.0°F 12:39pm

50.0°F 12:00am

Temp & Humidity Graphs

  Wind 

Wind Speed

 Calm

Gusting to

 22.0 mph

Wind from SE

135°  SE

Calm

 Avg speed:

 Wind Run:

 Peak Gust:

  9.0 mph 

7.0 miles

  24.0 mph 12:18am

  Almanac  

Moon age: 9 days,3 hours,8 minutes,68%

Waxing Gibbous
68%
Illuminated
9 days in cycle

 Moonrise:

 Moonset:

 Sunrise:

 Sunset:

 Solar Noon:

1:38pm

1:35am

7:15am

4:41pm

12:00pm

0min 21s less daylight tomorrow 

  Solar Radiation 

(Current Solar)
  No Sun Light
(Todays High)
 None@12:00am

Rain

 Rain Today:

 Rain Rate (/hr):

 Rain last hour:

 Rain Yesterday:

 This Month:

 Season Total:

1 Day Since Last Dry Day

0.01 in

0.024 in

0.01 in

0.72 in

1.78 in

10.29 in

Updated Time

Updated: 12/17/18  12:54am

(Updated  sec ago)

Humidity & Barometer

 Humidity:

 Wetbulb:

 Dew Point:

 Barometer:

95% 

43.7°F 

43.0°F 

30.070 inHg 

 Baro Trend:  Falling Slowly 
Northern Calif
Preparedness
Fire 
Level 

    UV Index  

(Current UV)
0.0  None
(Todays High) @ 12:00am
0.0   None

National Weather Service Forecast

Overnight

Overnight: Heavy Rain
Heavy Rain
Monday

Monday: Chance Rain Showers then Partly Sunny
Chance Rain Showers
Monday
Night
Monday Night: Mostly Cloudy
Mostly Cloudy
Tuesday

Tuesday: Mostly Sunny
Mostly Sunny
Tuesday
Night
Tuesday Night: Partly Cloudy
Partly Cloudy
Wednesday

Wednesday: Sunny
Sunny
Lo 42 °F ↑ Hi 49 °F ↓ Lo 40 °F Hi 53 °F Lo 43 °F Hi 59 °F

Foresthill Probe 2 Stats  
Foresthill Probe 2: is located on Thomas Street
at 3000 feet. The main Foresthill Weather site
is located on Melody ln at the 2860 foot elevation

Calm
43.4°F
6.3°C
Temp Rate:
+0.2°F
Calm
Gusting to
None
(Humidity)
96%
Calm
155°  
Updated: 17/12/18 - 00:50:13
 Todays High: 43.5°F 00:00
 Todays Low: 43.4°F 00:39
 Rain Today: 0.00 in
 Season Total: 10.48 in

Foresthill Wx: Monthly,Yearly, Highs and Lows 

Foresthill  
This Weather Data is coming from the main Foresthill
Weather site located on Melody ln at the 2860 foot
elevation
Not Foresthill Probe 2
Weather Data
Month
  High
Month
  Low
Year
High
Year
Low
Temp 53.8°F
12/12/18
31.7°F
12/2/18
93.9°F
8/10/18
21.9°F
2/23/18
Humidity 100%
12/1/18
34%
12/14/18
100%
1/8/18
9%
10/15/18
Heat Index 55.8°F
12/12/18
36.0°F
12/3/18
93.3°F
7/25/18
27.1°F
2/20/18
Wind Chill 53.8°F
12/12/18
19.7°F
12/3/18
93.9°F
8/10/18
9.2°F
2/23/18
Wind Gust 34 mph
12/16/18
0 mph
12/1/18
43 mph
3/1/18
0 mph
1/1/18
Barometer 30.41 in
12/9/18
29.92 in
12/5/18
30.55 in
1/27/18
29.53 in
11/29/18
ET 0.06 in
12/13/18
0.00 in
12/1/18
0.25 in
6/24/18
0.00 in
1/1/18
Dew Point 44.0°F
12/8/18
23.6°F
12/14/18
66.9°F
7/24/18
0.7°F
11/8/18
Pacific Satellite US Radar Satellite Imagery Sacramento,CA.  (click to enlarge)
NWS Weather Forecast - Summary
Updated: Sunday, December 16, 2018 - 2:30pm PST
Current Interstate Highway Conditions for I-80 & US-50
N/A
N/A
NWS Weather Forecast: Overnight and Monday (Updated: Sun, 16-Dec-2018 1:37pm PST)
Overnight

Overnight: Heavy Rain
Heavy Rain

Lo 42 °F ↑
NWS forecast: Rain before 4am, then a chance of rain showers. Cloudy. Low around 42, with temperatures rising to around 44 overnight. South wind 7 to 13 mph, with gusts as high as 22 mph. Chance of precipitation is 100%. New rainfall amounts between a half and three quarters of an inch possible.
Monday

Monday: Chance Rain Showers then Partly Sunny
Chance Rain Showers

Hi 49 °F ↓
NWS forecast: A chance of rain showers before 10am. Partly sunny. High near 49, with temperatures falling to around 46 in the afternoon. South wind 3 to 7 mph. Chance of precipitation is 30%. New rainfall amounts less than a tenth of an inch possible.
YR.NO 10 Day Weather forecast
Last update: 12/16/2018 @ 11:30
Next update: 12/17/2018 @ 00:00
Provided by: 22
      Temperature Precipitation Pressure Wind  
Tomorrow
12/16/2018
22:00 00:00 41°F 0.37 in 30.09 inHg Moderate breeze from southeast 14 mph
    (Click to enlarge)
meteogram

    Forecast for next 9 days

      Temperature Precip Pressure Wind  
Today 00:00 06:00 41°F 0.21 in 30.11 inHg Light air from south-southeast 3 mph
  06:00 12:00 41°F   30.19 inHg Light breeze from south 4 mph
  12:00 18:00 48°F   30.22 inHg Light breeze from south-southwest 4 mph
  18:00 00:00 41°F   30.24 inHg Light air from east-northeast 2 mph
      Temperature Precip Pressure Wind  
Tuesday
12/18/2018
00:00 06:00 34°F   30.27 inHg Light air from east-northeast 3 mph
  06:00 12:00 30°F   30.27 inHg Light air from east-northeast 3 mph
  12:00 18:00 50°F   30.29 inHg Light air from south-southwest 2 mph
  18:00 00:00 43°F   30.31 inHg Light air from east 2 mph
      Temperature Precip Pressure Wind  
Wednesday
12/19/2018
00:00 06:00 36°F   30.32 inHg Light breeze from east-northeast 4 mph
  04:00 10:00 36°F   30.28 inHg Light breeze from east-northeast 5 mph
  10:00 16:00 52°F   30.27 inHg Light air from east-northeast 2 mph
  16:00 22:00 52°F   30.16 inHg Light air from west-southwest 3 mph
  22:00 04:00 36°F   30.14 inHg Light breeze from east-northeast 4 mph
      Temperature Precip Pressure Wind  
Thursday
12/20/2018
04:00 10:00 34°F   30.11 inHg Light breeze from east-northeast 5 mph
  10:00 16:00 54°F   30.09 inHg Light air from southwest 3 mph
  16:00 22:00 50°F   30.05 inHg Light air from south-southeast 2 mph
  22:00 04:00 45°F 0.40 in 30.05 inHg Light breeze from southeast 5 mph
      Temperature Precip Pressure Wind  
Friday
12/21/2018
04:00 10:00 43°F   30.06 inHg Light breeze from east 6 mph
  10:00 16:00 46°F   30.12 inHg Light air from east 1 mph
  16:00 22:00 45°F   30.09 inHg Light breeze from west-northwest 4 mph
  22:00 04:00 39°F   30.14 inHg Light air from north-northeast 2 mph
      Temperature Precip Pressure Wind  
Saturday
12/22/2018
04:00 10:00 28°F   30.16 inHg Light breeze from east-northeast 7 mph
  10:00 16:00 46°F   30.14 inHg Light breeze from east-northeast 4 mph
  16:00 22:00 46°F   30.16 inHg Light air from south-southwest 3 mph
  22:00 04:00 39°F 0.04 in 30.18 inHg Light air from south-southeast 2 mph
      Temperature Precip Pressure Wind  
Sunday
12/23/2018
04:00 10:00 37°F 0.23 in 30.18 inHg Light breeze from east-southeast 6 mph
  10:00 16:00 37°F 0.07 in 30.21 inHg Light breeze from southeast 6 mph
  16:00 22:00 41°F   30.20 inHg Light breeze from south-southeast 4 mph
  22:00 04:00 32°F   30.19 inHg Light breeze from east-northeast 6 mph
      Temperature Precip Pressure Wind  
Monday
12/24/2018
04:00 10:00 27°F   30.10 inHg Light breeze from east-northeast 5 mph
  10:00 16:00 39°F 0.41 in 30.06 inHg Light breeze from southeast 6 mph
  16:00 22:00 34°F 0.22 in 29.90 inHg Gentle breeze from southeast 9 mph
  22:00 04:00 34°F   29.92 inHg Light breeze from south 7 mph
      Temperature Precip Pressure Wind  
Tuesday
12/25/2018
04:00 10:00 34°F   29.94 inHg Light air from north-northwest 1 mph
  10:00 16:00 37°F   30.03 inHg Light breeze from north 4 mph
  16:00 22:00 41°F   29.99 inHg Light breeze from west-northwest 4 mph
  22:00 04:00 32°F   30.05 inHg Gentle breeze from northeast 8 mph

NOAA Local Storm Report
20 MILES NORTH-NORTHWEST OF LANCASTER   ( More )
DATE
12/10/2018
TIME
7:14 AM
COUNTY
LANCASTER
STATE
SC
GEOGRAPHIC
35.00N 80.86W
SOURCE
BROADCAST MEDIA
SNOW ESTIMATED AT 0.0 INCH
light snow observed in indian land, sc. Video from broadcast media shared through social media. No accumulation.
How Close Are We To this Month's Temperature Record ?
Updated Monday, Dec 17, 2018- 12:50:01 AM

Current Temperature: 44.3°F

December's High: Temperature Record 65.8°F - Set on Tue, Dec 17, 2013 - 1:22:00 PM
We are currently 21.5°F Less than this Month's record High

December's Low: Temperature Record 20.2°F - Set on Sun, Dec 8, 2013 - 7:26:00 AM
We are currently 24.1°F More than this Month's record Low

Weather History For Monday, December 17, 2018


On this Day - In Weather History ...
Data courtesy of weatherforyou.com
powered by Cumulus v1.9.3 (1059)
Ambient Weather VWS v14.00
Top Contact Website Map Copyright © 2007 - 2018 Foresthillweather.com Never base important decisions on this or any weather information obtained from the Internet